Brize Norton, United Kingdom

6:01 AM BST on April 27, 2018 (GMT +0100)
Brize Norton Air Base

Weather History for EGVN - December, 2012

Change the Weather History Date:

Sunday, December 9, 2012

  Actual Average Record
Temperature  
Mean Temperature 44 °F -  
Max Temperature 48 °F 44 °F 58 °F (2016)
Min Temperature 39 °F 34 °F 26 °F (2010)
Degree Days  
Heating Degree Days 22    
Moisture  
Dew Point 38 °F    
Average Humidity 77    
Maximum Humidity 93    
Minimum Humidity 58    
Precipitation  
Precipitation 0.00 in - - ()
Sea Level Pressure  
Sea Level Pressure 30.10 in    
Wind  
Wind Speed 7 mph ()    
Max Wind Speed 12 mph    
Max Gust Speed -    
Visibility 8.6 miles    
Events Rain    
Averages and records for this station are not official NWS values.
T = Trace of Precipitation, MM = Missing Value Source: Averaged Metar Reports

Daily Weather History Graph

Daily Weather History Graph

Search for Another Location

Airport or City:

Astronomy

Dec. 09, 2012 Rise Set
Actual Time 8:01 AM GMT 3:56 PM GMT
Civil Twilight 7:21 AM GMT 4:36 PM GMT
Nautical Twilight 6:37 AM GMT 5:19 PM GMT
Astronomical Twilight 5:57 AM GMT 6:00 PM GMT
Moon 2:51 AM GMT (12/9) 1:15 PM GMT (12/9)
Length of Visible Light 9h 15m
Length of Day
7h 54m
Waning Crescent, 20% of the Moon is Illuminated
Dec 9
Waning Crescent
Dec 13
New
Dec 20
First Quarter
Dec 28
Full
Jan 5
Last Quarter

Hourly Weather History & Observations

Time (GMT) Temp. Windchill Dew Point Humidity Pressure Visibility Wind Dir Wind Speed Gust Speed Precip Events Conditions
12:50 AM 39.2 °F 34.2 °F 37.4 °F 93% 30.21 in 6.2 mi West 6.9 mph - N/A   Mostly Cloudy
1:50 AM 41.0 °F 35.8 °F 37.4 °F 87% 30.21 in 6.2 mi West 8.1 mph - N/A   Mostly Cloudy
2:50 AM 42 °F - 39 °F 86% 30.21 in 16 mi West 9.2 mph - -   Mostly Cloudy
2:50 AM 42.8 °F 37.5 °F 39.2 °F 87% 30.18 in 6.2 mi West 9.2 mph - N/A   Mostly Cloudy
3:50 AM 42.8 °F 39.3 °F 39.2 °F 87% 30.15 in 6.2 mi WSW 5.8 mph - N/A   Overcast
4:50 AM 44.6 °F 40.2 °F 39.2 °F 81% 30.15 in 6.2 mi WSW 8.1 mph - N/A   Overcast
5:50 AM 44 °F - 40 °F 79% 30.17 in 19 mi WSW 5.8 mph - -   Overcast
5:50 AM 44.6 °F 41.4 °F 39.2 °F 81% 30.15 in 6.2 mi WSW 5.8 mph - N/A   Overcast
6:50 AM 44.6 °F 41.4 °F 41.0 °F 87% 30.12 in 6.2 mi WSW 5.8 mph - N/A   Overcast
7:50 AM 44.6 °F 41.4 °F 41.0 °F 87% 30.12 in 6.2 mi West 5.8 mph - N/A   Mostly Cloudy
8:50 AM 44 °F - 40 °F 82% 30.14 in 16 mi West 9.2 mph - -   Mostly Cloudy
8:50 AM 44.6 °F 39.7 °F 41.0 °F 87% 30.12 in 6.2 mi West 9.2 mph - N/A   Mostly Cloudy
9:50 AM 44.6 °F 42.2 °F 39.2 °F 81% 30.09 in 6.2 mi WSW 4.6 mph - N/A   Mostly Cloudy
10:50 AM 44.6 °F 40.2 °F 39.2 °F 81% 30.09 in 6.2 mi West 8.1 mph - N/A   Mostly Cloudy
11:50 AM 48 °F - 40 °F 64% 30.09 in 25 mi West 10.4 mph - -   Mostly Cloudy
11:50 AM 48.2 °F - 39.2 °F 71% 30.06 in 6.2 mi West 10.4 mph - N/A   Mostly Cloudy
12:50 PM 48.2 °F - 39.2 °F 71% 30.04 in 6.2 mi West 9.2 mph - N/A Rain Light Rain
1:50 PM 48.2 °F - 39.2 °F 71% 30.04 in 6.2 mi West 9.2 mph - N/A   Mostly Cloudy
2:50 PM 47 °F - 40 °F 70% 30.04 in 31 mi WNW 11.5 mph - -   Partly Cloudy
2:50 PM 48.2 °F - 41.0 °F 76% 30.04 in 6.2 mi WNW 11.5 mph - N/A   Mostly Cloudy
3:50 PM 46.4 °F 41.5 °F 41.0 °F 81% 30.04 in 6.2 mi West 10.4 mph - N/A Rain Light Rain Showers
4:50 PM 44.6 °F 40.2 °F 39.2 °F 81% 30.04 in 6.2 mi West 8.1 mph - N/A   Partly Cloudy
5:50 PM 44 °F - 34 °F 58% 30.07 in 19 mi NW 10.4 mph - -   Partly Cloudy
5:50 PM 44.6 °F 39.2 °F 33.8 °F 66% 30.04 in 6.2 mi NW 10.4 mph - N/A   Mostly Cloudy
6:50 PM 42.8 °F 38.6 °F 32.0 °F 66% 30.04 in 6.2 mi West 6.9 mph - N/A   Partly Cloudy
7:50 PM 42.8 °F 38.6 °F 33.8 °F 70% 30.04 in 6.2 mi West 6.9 mph - N/A   Partly Cloudy
8:50 PM 41 °F - 33 °F 64% 30.07 in 19 mi West 6.9 mph - -   Partly Cloudy
8:50 PM 41.0 °F 36.4 °F 33.8 °F 76% 30.04 in 6.2 mi West 6.9 mph - N/A   Scattered Clouds
9:50 PM 41.0 °F 36.4 °F 33.8 °F 76% 30.06 in 6.2 mi WNW 6.9 mph - N/A   Partly Cloudy
10:50 PM 41.0 °F 35.8 °F 33.8 °F 76% 30.06 in 6.2 mi West 8.1 mph - N/A   Mostly Cloudy
11:50 PM 39 °F - 34 °F 75% 30.09 in 19 mi WNW 8.1 mph - -   Partly Cloudy
11:50 PM 39.2 °F 33.6 °F 33.8 °F 81% 30.06 in 6.2 mi WNW 8.1 mph - N/A   Partly Cloudy